This is the latest recevied weather packets stored in our database for station/object K7LDN-13. If no packets are shown the sender has not sent any weather packets the latest 10 day(s).
| Time | Temp. | Humidity | Pressure | Rain* | Wind** | Luminosity | Snow |
|---|---|---|---|---|---|---|---|
| 1777715535 | 11.11° C | 48% | 1023.3 hPa | 0 mm | - | 0 W/m² | - |
| 1777715233 | 11.11° C | 45% | 1023.2 hPa | 0 mm | - | 0 W/m² | - |
| 1777714931 | 11.11° C | 46% | 1023 hPa | 0 mm | - | 0 W/m² | - |
| 1777714629 | 10° C | 47% | 1023 hPa | 0 mm | - | 0 W/m² | - |
| 1777714326 | 10° C | 48% | 1023 hPa | 0 mm | - | 0 W/m² | - |
| 1777714023 | 9.44° C | 48% | 1023.2 hPa | 0 mm | - | 0 W/m² | - |
| 1777713721 | 8.33° C | 49% | 1023.2 hPa | 0 mm | - | 0 W/m² | - |
| 1777713418 | 8.33° C | 49% | 1023 hPa | 0 mm | - | 0 W/m² | - |
| 1777713114 | 8.33° C | 49% | 1023 hPa | 0 mm | - | 0 W/m² | - |
| 1777712811 | 8.33° C | 49% | 1023 hPa | 0 mm | - | 0 W/m² | - |
| 1777712508 | 8.33° C | 48% | 1023.2 hPa | 0 mm | - | 0 W/m² | - |
| 1777712205 | 8.33° C | 49% | 1023.3 hPa | 0 mm | - | 0 W/m² | - |
| 1777711901 | 8.33° C | 49% | 1023.2 hPa | 0 mm | - | 0 W/m² | - |
| 1777711598 | 8.33° C | 49% | 1023 hPa | 0 mm | - | 0 W/m² | - |
| 1777711293 | 7.78° C | 50% | 1023.2 hPa | 0 mm | - | 0 W/m² | - |
| 1777710991 | 8.33° C | 49% | 1023.2 hPa | 0 mm | - | 0 W/m² | - |
| 1777710688 | 8.33° C | 48% | 1023 hPa | 0 mm | - | 0 W/m² | - |
| 1777710385 | 8.89° C | 47% | 1023.4 hPa | 0 mm | - | 0 W/m² | - |
| 1777710081 | 9.44° C | 45% | 1023.3 hPa | 0 mm | - | 0 W/m² | - |
| 1777709779 | 8.89° C | 45% | 1023.3 hPa | 0 mm | - | 0 W/m² | - |
| 1777709476 | 8.89° C | 46% | 1023.3 hPa | 0 mm | - | 0 W/m² | - |
| 1777709174 | 8.33° C | 47% | 1023.3 hPa | 0 mm | - | 0 W/m² | - |
| 1777708871 | 8.89° C | 47% | 1023.4 hPa | 0 mm | - | 0 W/m² | - |
| 1777708568 | 8.89° C | 47% | 1023.4 hPa | 0 mm | - | 0 W/m² | - |
| 1777708266 | 8.89° C | 47% | 1023.4 hPa | 0 mm | - | 0 W/m² | - |
* Rain latest hour (hover to see other rain measurements)
** Current wind speed in m/s (hover to see current wind gust speed)